Date String (YYYY-MM-DD hh:mm:ss) UTC,Instrument flags,Ambient pressure (hPa),Sample flow (lpm),Bypass flow (lpm),Sample temperature (°C),Ambient temperature (°C),ASC tube jacket temperature (°C),LED temperature (°C),Box temperature (°C),Sample RH (%),Span deviation,Mass concentration (μg/m³),Mass concentration (μg/m³),Mass concentration (μg/m³)
DateTimeUTC,F1_M11,P_M11,Q1_M11,Q2_M11,T1_M11,T2_M11,T3_M11,T4_M11,T5_M11,U1_M11,ZSPAN_M11,X0_M11,X2_M11,X1_M11
2022-09-27 11:00:00,,0833.2,5.00,0.00,30.5,28.9,00.0,39.3,32.3,14.4,0000.0,0009.95,0003.52,0003.13
2022-09-27 11:01:00,,0833.2,5.00,0.00,30.5,28.9,00.0,39.3,32.3,14.3,0000.0,0010.32,0003.52,0003.13
2022-09-27 11:02:00,,0833.2,5.00,0.00,30.5,28.9,00.0,39.3,32.3,14.3,0000.0,0010.58,0003.51,0003.14
2022-09-27 11:03:00,,0833.2,5.00,0.00,30.5,28.9,00.0,39.3,32.3,14.5,0000.0,0009.94,0003.48,0003.14
2022-09-27 11:04:00,,0833.2,5.00,0.00,30.5,28.9,00.0,39.3,32.3,14.4,0000.0,0009.87,0003.47,0003.13
2022-09-27 11:05:00,,0833.2,5.00,0.00,30.5,28.9,00.0,39.3,32.3,14.3,0000.0,0009.90,0003.48,0003.13
2022-09-27 11:06:00,,0833.1,5.00,0.00,30.5,28.9,00.0,39.3,32.3,14.3,0000.0,0009.42,0003.52,0003.14
2022-09-27 11:07:00,,0833.2,4.99,0.00,30.5,28.9,00.0,39.3,32.3,14.3,0000.0,0008.82,0003.51,0003.14
2022-09-27 11:08:00,,0833.2,5.01,0.00,30.5,28.9,00.0,39.3,32.3,14.3,0000.0,0008.31,0003.52,0003.14
2022-09-27 11:09:00,,0833.2,5.00,0.00,30.5,28.9,00.0,39.3,32.3,14.4,0000.0,0008.39,0003.55,0003.15
2022-09-27 11:10:00,,0833.2,5.00,0.00,30.5,28.9,00.0,39.3,32.3,14.4,0000.0,0008.42,0003.58,0003.15
2022-09-27 11:11:00,,0833.3,5.00,0.00,30.5,28.9,00.0,39.3,32.3,14.3,0000.0,0007.85,0003.58,0003.14
2022-09-27 11:12:00,,0833.2,5.00,0.00,30.5,28.9,00.0,39.3,32.3,14.3,0000.0,0007.46,0003.56,0003.14
2022-09-27 11:13:00,,0833.2,5.00,0.00,30.5,28.9,00.0,39.3,32.3,14.4,0000.0,0007.26,0003.54,0003.13
2022-09-27 11:14:00,,0833.2,5.00,0.00,30.5,28.9,00.0,39.3,32.3,14.4,0000.0,0007.46,0003.56,0003.13
2022-09-27 11:15:00,,0833.2,5.01,0.00,30.5,28.9,00.0,39.3,32.3,14.3,0000.0,0007.62,0003.59,0003.13
2022-09-27 11:16:00,,0833.2,4.99,0.00,30.5,28.9,00.0,39.3,32.3,14.3,0000.0,0007.63,0003.60,0003.14
2022-09-27 11:17:00,,0833.2,4.99,0.00,30.5,28.9,00.0,39.3,32.3,14.3,0000.0,0007.62,0003.59,0003.13
2022-09-27 11:18:00,,0833.2,5.01,0.00,30.5,28.9,00.0,39.3,32.3,14.3,0000.0,0007.19,0003.57,0003.13
2022-09-27 11:19:00,,0833.2,5.00,0.00,30.5,28.8,00.0,39.3,32.2,14.3,0000.0,0006.64,0003.56,0003.12
2022-09-27 11:20:00,,0833.2,5.00,0.00,30.5,28.8,00.0,39.3,32.2,14.3,0000.0,0006.58,0003.52,0003.11
2022-09-27 11:21:00,,0833.2,5.01,0.00,30.5,28.8,00.0,39.3,32.2,14.4,0000.0,0007.50,0003.50,0003.11
2022-09-27 11:22:00,,0833.2,4.99,0.00,30.5,28.8,00.0,39.3,32.3,14.4,0000.0,0007.51,0003.52,0003.12
2022-09-27 11:23:00,,0833.2,5.01,0.00,30.5,28.8,00.0,39.3,32.2,14.5,0000.0,0007.55,0003.52,0003.13
2022-09-27 11:24:00,,0833.1,4.99,0.00,30.5,28.8,00.0,39.3,32.2,14.4,0000.0,0007.50,0003.53,0003.13
2022-09-27 11:25:00,,0833.2,5.00,0.00,30.5,28.8,00.0,39.3,32.3,14.4,0000.0,0007.99,0003.53,0003.14
2022-09-27 11:26:00,,0833.3,4.99,0.00,30.5,28.8,00.0,39.3,32.3,14.4,0000.0,0008.27,0003.52,0003.14
2022-09-27 11:27:00,,0833.3,5.00,0.00,30.5,28.8,00.0,39.3,32.2,14.4,0000.0,0008.48,0003.49,0003.13
2022-09-27 11:28:00,,0833.3,5.01,0.00,30.5,28.8,00.0,39.3,32.2,14.4,0000.0,0008.81,0003.48,0003.14
2022-09-27 11:29:00,,0833.3,4.99,0.00,30.5,28.8,00.0,39.3,32.2,14.4,0000.0,0008.90,0003.51,0003.15
2022-09-27 11:30:00,,0833.3,5.01,0.00,30.5,28.8,00.0,39.3,32.3,14.5,0000.0,0009.00,0003.54,0003.16
2022-09-27 11:31:00,,0833.3,4.99,0.00,30.5,28.8,00.0,39.3,32.2,14.4,0000.0,0009.26,0003.58,0003.17
2022-09-27 11:32:00,,0833.3,5.01,0.00,30.5,28.8,00.0,39.3,32.2,14.4,0000.0,0008.96,0003.59,0003.17
2022-09-27 11:33:00,,0833.3,4.99,0.00,30.5,28.8,00.0,39.3,32.2,14.4,0000.0,0009.05,0003.59,0003.16
2022-09-27 11:34:00,,0833.3,5.00,0.00,30.4,28.8,00.0,39.3,32.2,14.5,0000.0,0009.07,0003.60,0003.16
2022-09-27 11:35:00,,0833.3,5.01,0.00,30.4,28.8,00.0,39.2,32.2,14.6,0000.0,0008.85,0003.60,0003.15
2022-09-27 11:36:00,,0833.3,4.99,0.00,30.4,28.8,00.0,39.2,32.2,14.5,0000.0,0008.20,0003.57,0003.14
2022-09-27 11:37:00,,0833.3,5.01,0.00,30.4,28.8,00.0,39.2,32.2,14.5,0000.0,0007.85,0003.60,0003.14
2022-09-27 11:38:00,,0833.3,4.98,0.00,30.4,28.8,00.0,39.2,32.2,14.5,0000.0,0007.69,0003.66,0003.14
2022-09-27 11:39:00,,0833.2,5.01,0.00,30.4,28.8,00.0,39.2,32.2,14.4,0000.0,0007.24,0003.64,0003.12
2022-09-27 11:40:00,,0833.3,4.99,0.00,30.4,28.8,00.0,39.2,32.2,14.4,0000.0,0007.10,0003.63,0003.11
2022-09-27 11:41:00,,0833.3,5.01,0.00,30.4,28.7,00.0,39.2,32.2,14.4,0000.0,0007.05,0003.62,0003.09
2022-09-27 11:42:00,,0833.3,5.00,0.00,30.4,28.7,00.0,39.2,32.2,14.4,0000.0,0006.42,0003.58,0003.07
2022-09-27 11:43:00,,0833.4,5.00,0.00,30.4,28.7,00.0,39.2,32.2,14.5,0000.0,0005.77,0003.54,0003.05
2022-09-27 11:44:00,,0833.4,5.00,0.00,30.4,28.7,00.0,39.2,32.2,14.5,0000.0,0005.46,0003.51,0003.06
2022-09-27 11:45:00,,0833.3,4.99,0.00,30.4,28.7,00.0,39.2,32.2,14.5,0000.0,0005.46,0003.51,0003.06
2022-09-27 11:46:00,,0833.4,5.01,0.00,30.4,28.7,00.0,39.2,32.1,14.5,0000.0,0005.47,0003.50,0003.06
2022-09-27 11:47:00,,0833.4,4.99,0.00,30.4,28.7,00.0,39.2,32.2,14.5,0000.0,0005.57,0003.49,0003.07
2022-09-27 11:48:00,,0833.4,5.01,0.00,30.4,28.7,00.0,39.2,32.1,14.5,0000.0,0005.76,0003.45,0003.07
2022-09-27 11:49:00,,0833.3,4.99,0.00,30.4,28.7,00.0,39.2,32.1,14.5,0000.0,0005.71,0003.42,0003.06
2022-09-27 11:50:00,,0833.3,5.01,0.00,30.4,28.7,00.0,39.2,32.1,14.5,0000.0,0005.90,0003.44,0003.07
2022-09-27 11:51:00,,0833.3,4.99,0.00,30.4,28.7,00.0,39.2,32.1,14.6,0000.0,0006.06,0003.42,0003.07
2022-09-27 11:52:00,,0833.3,5.01,0.00,30.4,28.7,00.0,39.2,32.1,14.6,0000.0,0007.41,0003.43,0003.06
2022-09-27 11:53:00,,0833.3,4.99,0.00,30.4,28.7,00.0,39.2,32.1,14.6,0000.0,0008.13,0003.46,0003.07
2022-09-27 11:54:00,,0833.3,5.01,0.00,30.4,28.7,00.0,39.2,32.1,14.6,0000.0,0008.62,0003.47,0003.08
2022-09-27 11:55:00,,0833.3,4.99,0.00,30.4,28.7,00.0,39.2,32.1,14.7,0000.0,0009.26,0003.50,0003.08
2022-09-27 11:56:00,,0833.3,5.01,0.00,30.3,28.7,00.0,39.2,32.1,14.6,0000.0,0009.42,0003.49,0003.08
2022-09-27 11:57:00,,0833.3,4.99,0.00,30.3,28.7,00.0,39.2,32.1,14.5,0000.0,0009.43,0003.49,0003.08
2022-09-27 11:58:00,,0833.3,5.02,0.00,30.3,28.7,00.0,39.2,32.1,14.5,0000.0,0009.52,0003.52,0003.08
2022-09-27 11:59:00,,0833.3,4.99,0.00,30.3,28.7,00.0,39.1,32.1,14.5,0000.0,0009.30,0003.54,0003.10
